Hourly Data Report for March 10, 2010

HALIFAX STANFIELD INT'L A
NOVA SCOTIA

44°52'48.060" N
63°30'00.050" W
145.40 m
8202250
71395
YHZ

Download Data

Hourly Data (March 2010)
Hourly Data Report for March 10, 2010
TIME
LST
Temp Definition
°C
Dew Point Definition
°C
Rel Hum Definition
%
Precip. Amount Definition
mm

Wind Dir Definition
10's deg

Wind Spd Definition
km/h
Visibility Definition
km
Stn Press Definition
kPa
Hmdx Definition


Wind Chill Definition


Weather Definition


00:00 -3.5 -9.9 61   28 13 24.1 99.34   -8 Clear
01:00 -4.5 -9.9 66   27 7 24.1 99.37   -8 Clear
02:00 -4.5 -9.7 67   28 13 24.1 99.40   -10 Clear
03:00 -4.7 -9.5 69   28 9 24.1 99.44   -9 Clear
04:00 -4.9 -9.3 71   27 13 24.1 99.49   -10 Clear
05:00 -4.3 -9.3 68   27 9 24.1 99.54   -8 Clear
06:00 -4.7 -9.3 70   27 13 24.1 99.58   -10 Mainly Clear
07:00 -4.2 -9.0 69   27 15 24.1 99.61   -10 Mainly Clear
08:00 -2.0 -8.2 62   27 9 24.1 99.65   -5 Clear
09:00 -0.1 -7.7 57   29 9 24.1 99.68   -3 Clear
10:00 2.5 -8.7 43   26 13 24.1 99.67     Clear
11:00 3.0 -9.7 39   27 11 24.1 99.65     Clear
12:00 3.9 -8.9 39   31 19 24.1 99.62     Mainly Clear
13:00 4.4 -8.3 39   30 17 24.1 99.59     Clear
14:00 4.1 -8.6 39   27 15 24.1 99.55     Clear
15:00 4.6 -8.4 38   30 20 24.1 99.55     Mainly Clear
16:00 4.1 -10.6 33   28 20 24.1 99.56     Clear
17:00 3.6 -9.5 38   30 17 24.1 99.59     Clear
18:00 1.6 -9.6 43   31 13 24.1 99.65     Clear
19:00 0.6 -10.1 45   32 9 24.1 99.74     Clear
20:00 -0.2 -9.8 48   33 7 24.1 99.81   -3 Clear
21:00 -2.3 -9.0 60   32 6 24.1 99.86   -5 Clear
22:00 -2.7 -9.0 62     0 24.1 99.88     Clear
23:00 -3.3 -8.5 67   26 6 24.1 99.93   -6 Clear

Notes on Data Quality.

Legend

  • E = Estimated
  • M = Missing
  • NA = Not Available*
  • [empty] = Indicates an unobserved value
Date modified: